KLM91Y EHAM-ESSA

Flight info

Callsign KLM91Y
Flight time N/A
Altitude 37000
Route ANDIK N873 HUNQI DCT DOSUR DCT BEVUM DCT MIKNA N851 PELUP Z226 NILUG
Aircraft B739/M-SDE2E3FGHIRWXY/LB1

Departure

Time 2026-04-28 15:18
Airport Amsterdam Airport Schiphol (EHAM)

Arrival

Time N/A
Airport Stockholm-Arlanda Airport (ESSA)
Time Latitude Longitude Altitude Speed Heading
2026-04-28 14:45 52.30575 4.76697 -2 ft 0 kts 215°
2026-04-28 15:04 52.30585 4.76707 -2 ft 4 kts 215°
2026-04-28 15:04 52.30606 4.76732 -2 ft 2 kts 215°
2026-04-28 15:05 52.30624 4.76752 -2 ft 4 kts 220°
2026-04-28 15:05 52.30636 4.76768 -2 ft 4 kts 304°
2026-04-28 15:05 52.30622 4.76801 -2 ft 2 kts 304°
2026-04-28 15:05 52.30621 4.76804 -2 ft 1 kts 304°
2026-04-28 15:09 52.30621 4.76803 -2 ft 0 kts 304°
2026-04-28 15:09 52.30628 4.76787 -2 ft 3 kts 309°
2026-04-28 15:09 52.30662 4.76745 -2 ft 10 kts 323°
2026-04-28 15:09 52.30706 4.76754 -2 ft 11 kts 49°
2026-04-28 15:10 52.30657 4.76919 -2 ft 15 kts 97°
2026-04-28 15:10 52.30650 4.77101 -2 ft 17 kts 93°
2026-04-28 15:10 52.30645 4.77298 -2 ft 18 kts 92°
2026-04-28 15:10 52.30641 4.77497 -2 ft 17 kts 91°
2026-04-28 15:11 52.30724 4.77594 -2 ft 17 kts
2026-04-28 15:11 52.30837 4.77607 -2 ft 16 kts
2026-04-28 15:11 52.30946 4.77616 -2 ft 15 kts
2026-04-28 15:11 52.31051 4.77623 -2 ft 15 kts
2026-04-28 15:12 52.31150 4.77634 -2 ft 14 kts
2026-04-28 15:12 52.31246 4.77643 -2 ft 13 kts
2026-04-28 15:12 52.31353 4.77651 -2 ft 18 kts
2026-04-28 15:12 52.31485 4.77600 -2 ft 23 kts 318°
2026-04-28 15:13 52.31576 4.77366 -2 ft 28 kts 273°
2026-04-28 15:13 52.31566 4.77024 -2 ft 33 kts 266°
2026-04-28 15:13 52.31552 4.76633 -2 ft 35 kts 266°
2026-04-28 15:13 52.31540 4.76252 -2 ft 32 kts 267°
2026-04-28 15:14 52.31528 4.75899 -2 ft 30 kts 266°
2026-04-28 15:14 52.31516 4.75613 -2 ft 23 kts 266°
2026-04-28 15:14 52.31511 4.75357 -2 ft 22 kts 271°
2026-04-28 15:14 52.31512 4.75117 -2 ft 0 kts 258°
2026-04-28 15:15 52.31502 4.75100 -2 ft 3 kts 258°
2026-04-28 15:15 52.31497 4.75015 -2 ft 11 kts 266°
2026-04-28 15:15 52.31492 4.74858 -2 ft 17 kts 267°
2026-04-28 15:15 52.31488 4.74681 -2 ft 11 kts 277°
2026-04-28 15:16 52.31538 4.74661 -2 ft 8 kts
2026-04-28 15:16 52.31591 4.74665 -2 ft 8 kts
2026-04-28 15:16 52.31650 4.74676 -1 ft 10 kts 13°
2026-04-28 15:16 52.31669 4.74762 -2 ft 12 kts 88°
2026-04-28 15:17 52.31684 4.75230 -3 ft 73 kts 86°
2026-04-28 15:17 52.31723 4.76354 -2 ft 124 kts 87°
2026-04-28 15:17 52.31774 4.77981 64 ft 155 kts 84°
2026-04-28 15:17 52.31837 4.79790 476 ft 162 kts 81°
2026-04-28 15:18 52.31923 4.81635 1063 ft 159 kts 80°
2026-04-28 15:18 52.32030 4.83392 1738 ft 156 kts 80°
2026-04-28 15:18 52.32145 4.85280 2026 ft 179 kts 81°
2026-04-28 15:18 52.32272 4.87399 2215 ft 200 kts 81°
2026-04-28 15:19 52.32456 4.89737 2466 ft 217 kts 72°
2026-04-28 15:19 52.33250 4.91930 2836 ft 232 kts 54°
2026-04-28 15:19 52.34212 4.94066 3594 ft 236 kts 56°
2026-04-28 15:19 52.35180 4.96265 4299 ft 240 kts 56°
2026-04-28 15:20 52.36167 4.98520 4950 ft 248 kts 57°
2026-04-28 15:20 52.37169 5.00816 5628 ft 251 kts 57°
2026-04-28 15:20 52.38188 5.03150 6384 ft 254 kts 57°
2026-04-28 15:20 52.39227 5.05535 7025 ft 258 kts 56°
2026-04-28 15:21 52.40259 5.07904 7764 ft 259 kts 56°
2026-04-28 15:21 52.41308 5.10309 8479 ft 261 kts 56°
2026-04-28 15:21 52.42476 5.12613 9052 ft 270 kts 39°
2026-04-28 15:21 52.44170 5.13983 9787 ft 274 kts 22°
2026-04-28 15:22 52.46007 5.14873 10465 ft 278 kts 18°
2026-04-28 15:22 52.47947 5.15697 10664 ft 299 kts 17°
2026-04-28 15:22 52.50015 5.16560 10829 ft 318 kts 17°
2026-04-28 15:22 52.52233 5.17498 10985 ft 337 kts 17°
2026-04-28 15:23 52.54560 5.18498 11256 ft 350 kts 17°
2026-04-28 15:23 52.56898 5.19514 11862 ft 352 kts 18°
2026-04-28 15:23 52.59283 5.20562 12501 ft 355 kts 18°
2026-04-28 15:23 52.61695 5.21632 13018 ft 361 kts 18°
2026-04-28 15:24 52.64117 5.22712 13729 ft 362 kts 18°
2026-04-28 15:24 52.66565 5.23806 14373 ft 364 kts 17°
2026-04-28 15:24 52.68990 5.24887 14971 ft 366 kts 17°
2026-04-28 15:24 52.71474 5.25993 15643 ft 368 kts 17°
2026-04-28 15:25 52.73797 5.27656 16061 ft 371 kts 36°
2026-04-28 15:25 52.75697 5.30504 16874 ft 365 kts 50°
2026-04-28 15:25 52.77304 5.33763 17507 ft 368 kts 52°
2026-04-28 15:25 52.78885 5.37112 17965 ft 374 kts 53°
2026-04-28 15:26 52.80474 5.40532 18563 ft 377 kts 53°
2026-04-28 15:26 52.82094 5.44025 18928 ft 383 kts 52°
2026-04-28 15:26 52.83701 5.47488 19698 ft 378 kts 52°
2026-04-28 15:26 52.85300 5.50925 20103 ft 384 kts 52°
2026-04-28 15:27 52.86941 5.54450 20615 ft 386 kts 52°
2026-04-28 15:27 52.88592 5.57995 21027 ft 391 kts 52°
2026-04-28 15:27 52.90243 5.61541 21579 ft 391 kts 51°
2026-04-28 15:27 52.91912 5.65130 22111 ft 394 kts 51°
2026-04-28 15:28 52.93592 5.68747 22571 ft 397 kts 51°
2026-04-28 15:28 52.95278 5.72384 23089 ft 399 kts 51°
2026-04-28 15:28 52.96977 5.76052 23492 ft 403 kts 51°
2026-04-28 15:28 52.98685 5.79747 23960 ft 405 kts 51°
2026-04-28 15:29 53.00406 5.83476 24312 ft 408 kts 51°
2026-04-28 15:29 53.02134 5.87226 24748 ft 409 kts 52°
2026-04-28 15:29 53.03861 5.90982 25161 ft 410 kts 52°
2026-04-28 15:29 53.05595 5.94761 25563 ft 411 kts 52°
2026-04-28 15:30 53.07332 5.98551 25979 ft 412 kts 52°
2026-04-28 15:30 53.09047 6.02291 26399 ft 412 kts 52°
2026-04-28 15:30 53.10789 6.06094 26834 ft 412 kts 52°
2026-04-28 15:30 53.12523 6.09871 27402 ft 409 kts 52°
2026-04-28 15:31 53.14256 6.13637 27848 ft 409 kts 51°
2026-04-28 15:31 53.15999 6.17429 28054 ft 414 kts 51°
2026-04-28 15:31 53.17756 6.21261 28318 ft 417 kts 51°
2026-04-28 15:31 53.19522 6.25124 28738 ft 417 kts 52°
2026-04-28 15:32 53.21272 6.28965 29312 ft 413 kts 52°
2026-04-28 15:32 53.22419 6.31487 29768 ft 409 kts 52°
2026-04-28 15:32 53.24695 6.36499 30606 ft 402 kts 52°
2026-04-28 15:32 53.26384 6.40225 31009 ft 401 kts 52°
2026-04-28 15:33 53.28041 6.43888 31346 ft 401 kts 52°
2026-04-28 15:33 53.29722 6.47611 31658 ft 401 kts 52°
2026-04-28 15:33 53.31401 6.51330 31997 ft 400 kts 52°
2026-04-28 15:33 53.33076 6.55039 32358 ft 399 kts 52°
2026-04-28 15:34 53.34776 6.58688 32703 ft 397 kts 48°
2026-04-28 15:34 53.36720 6.61956 33039 ft 396 kts 42°
2026-04-28 15:34 53.38774 6.65037 33363 ft 396 kts 42°
2026-04-28 15:34 53.40823 6.68120 33692 ft 395 kts 42°
2026-04-28 15:35 53.42858 6.71210 34049 ft 394 kts 42°
2026-04-28 15:35 53.46922 6.77447 34441 ft 397 kts 42°
2026-04-28 15:35 53.48964 6.80590 34588 ft 399 kts 42°
2026-04-28 15:36 53.51011 6.83756 34760 ft 401 kts 42°
2026-04-28 15:36 53.53059 6.86935 34957 ft 401 kts 42°
2026-04-28 15:36 53.55113 6.90125 35132 ft 402 kts 42°
2026-04-28 15:36 53.57141 6.93271 35366 ft 401 kts 41°
2026-04-28 15:37 53.61428 6.99364 35350 ft 402 kts 39°
2026-04-28 15:37 53.65031 7.04374 35374 ft 399 kts 39°
2026-04-28 15:38 53.69969 7.11373 35372 ft 398 kts 39°
2026-04-28 15:38 53.74188 7.17397 35380 ft 397 kts 39°
2026-04-28 15:39 53.78386 7.23445 35382 ft 396 kts 40°
2026-04-28 15:39 53.82574 7.29519 35388 ft 396 kts 39°
2026-04-28 15:40 53.86747 7.35628 35401 ft 397 kts 42°
2026-04-28 15:40 53.90608 7.42352 35387 ft 399 kts 45°
2026-04-28 15:41 53.93758 7.48072 35389 ft 399 kts 45°
2026-04-28 15:41 53.97551 7.54955 35388 ft 400 kts 45°
2026-04-28 15:42 54.01364 7.61849 35392 ft 400 kts 44°
2026-04-28 15:42 54.05184 7.68753 35388 ft 400 kts 44°
2026-04-28 15:43 54.08975 7.75618 35386 ft 400 kts 44°
2026-04-28 15:43 54.12785 7.82536 35396 ft 400 kts 44°
2026-04-28 15:44 54.16585 7.89458 35391 ft 399 kts 44°
2026-04-28 15:44 54.20378 7.96385 35396 ft 399 kts 45°
2026-04-28 15:45 54.24162 8.03319 35406 ft 399 kts 44°
2026-04-28 15:45 54.27915 8.10212 35392 ft 398 kts 44°
2026-04-28 15:46 54.31684 8.17157 35394 ft 398 kts 44°
2026-04-28 15:46 54.35445 8.24107 35393 ft 397 kts 44°
2026-04-28 15:47 54.39201 8.31067 35399 ft 397 kts 44°
2026-04-28 15:47 54.42945 8.38026 35393 ft 397 kts 44°
2026-04-28 15:48 54.46688 8.45003 35399 ft 396 kts 44°
2026-04-28 15:48 54.50423 8.51987 35395 ft 396 kts 44°
2026-04-28 15:49 54.54154 8.58982 35397 ft 396 kts 44°
2026-04-28 15:49 54.57853 8.65937 35401 ft 397 kts 44°
2026-04-28 15:50 54.61573 8.72954 35398 ft 397 kts 44°
2026-04-28 15:50 54.65295 8.79996 35399 ft 397 kts 44°
2026-04-28 15:51 54.69011 8.87047 35400 ft 397 kts 44°
2026-04-28 15:51 54.72721 8.94110 35393 ft 396 kts 44°
2026-04-28 15:52 54.76425 9.01182 35399 ft 396 kts 44°
2026-04-28 15:52 54.80119 9.08264 35394 ft 396 kts 44°
2026-04-28 15:53 54.83810 9.15349 35390 ft 396 kts 44°
2026-04-28 15:53 54.87408 9.22606 35394 ft 397 kts 47°
2026-04-28 15:54 54.90783 9.30201 35420 ft 398 kts 48°
2026-04-28 15:54 54.94137 9.37852 35417 ft 398 kts 48°
2026-04-28 15:55 54.97495 9.45510 35420 ft 398 kts 48°
2026-04-28 15:55 55.00834 9.53120 35437 ft 398 kts 48°
2026-04-28 15:56 55.04190 9.60786 35425 ft 398 kts 48°
2026-04-28 15:56 55.07542 9.68463 35426 ft 397 kts 48°
2026-04-28 15:57 55.10891 9.76157 35429 ft 397 kts 48°
2026-04-28 15:57 55.14228 9.83847 35425 ft 397 kts 48°
2026-04-28 15:58 55.17565 9.91561 35424 ft 397 kts 48°
2026-04-28 15:58 55.20876 9.99239 35427 ft 398 kts 48°
2026-04-28 15:59 55.24207 10.06988 35422 ft 398 kts 48°
2026-04-28 15:59 55.27531 10.14747 35423 ft 398 kts 48°
2026-04-28 16:00 55.30851 10.22521 35423 ft 398 kts 48°
2026-04-28 16:00 55.34146 10.30259 35424 ft 398 kts 48°
2026-04-28 16:01 55.37455 10.38056 35436 ft 398 kts 48°
2026-04-28 16:01 55.40764 10.45875 35429 ft 398 kts 48°
2026-04-28 16:02 55.44063 10.53697 35426 ft 398 kts 48°
2026-04-28 16:02 55.47356 10.61530 35425 ft 398 kts 48°
2026-04-28 16:03 55.50643 10.69375 35425 ft 397 kts 48°
2026-04-28 16:03 55.53929 10.77242 35418 ft 397 kts 48°
2026-04-28 16:04 55.57201 10.85101 35418 ft 397 kts 48°
2026-04-28 16:04 55.60467 10.92969 35416 ft 397 kts 48°
2026-04-28 16:05 55.63727 11.00850 35422 ft 397 kts 48°
2026-04-28 16:05 55.66985 11.08749 35423 ft 397 kts 49°
2026-04-28 16:06 55.70240 11.16670 35421 ft 397 kts 49°
2026-04-28 16:06 55.73471 11.24555 35418 ft 397 kts 49°
2026-04-28 16:07 55.76723 11.32519 35419 ft 399 kts 49°
2026-04-28 16:08 55.81598 11.44505 35430 ft 399 kts 49°
2026-04-28 16:08 55.84841 11.52515 35417 ft 399 kts 49°
2026-04-28 16:09 55.89701 11.64566 35416 ft 399 kts 49°
2026-04-28 16:10 55.94523 11.76587 35413 ft 399 kts 49°